Weather observations for the past three days for
Toledo - Toledo Express Airport
Imperial (Metric)
Date Time (edt) Wind (mph) Vis. (mi.) Weather Sky Cond. Temperature (ºF) Relative Humidity Wind Chill (°F) Heat Index (°F) Pressure Precipitation (in)
Air Dwpt 6 hour altimeter (in) sea level (mb) 1 hr 3 hr 6 hr
Max. Min.
20 17:52 N 7 10.00 Mostly Cloudy BKN065 91.9 71.1 51% 99 30.2 1022.2
20 16:52 Vrbl 3 10.00 Fair CLR 93.9 70 46% 100 30.2 1022.2
20 15:52 NE 7 10.00 Fair CLR 93 68 44% 97 30.23 1023.0
20 14:52 N 10 10.00 Thunderstorm in Vicinity BKN044 OVC060 87.1 69.1 55% 91 30.25 1023.9
20 13:52 Vrbl 3 10.00 Fair CLR 91 72 91.9 75.9 54% 99 30.26 1024.1
20 12:52 Calm 10.00 Fair CLR 90 73 58% 98 30.27 1024.6
20 11:52 Calm 10.00 Mostly Cloudy FEW060 BKN080 88 73 61% 96 30.28 1024.9
20 10:52 Calm 8.00 A Few Clouds FEW065 84.9 72 65% 91 30.28 1024.9
20 09:52 NW 3 7.00 Fair CLR 82 73 74% 87 30.28 1024.8
20 08:52 S 3 7.00 Fair CLR 79 72 79% 82 30.27 1024.7
20 07:52 SW 3 8.00 A Few Clouds FEW065 75.9 71.1 75.9 70 85% 76 30.27 1024.6
20 06:52 SW 3 7.00 A Few Clouds FEW065 73 70 90% 30.26 1024.3
20 05:52 Calm 9.00 Fair CLR 72 69.1 91% 30.25 1023.9
20 04:52 E 3 10.00 Fair CLR 71.1 69.1 94% 30.24 1023.6
20 03:52 Calm 10.00 Fair CLR 72 69.1 91% 30.24 1023.5
20 02:52 Calm 10.00 Fair CLR 73 69.1 87% 30.25 1023.8
20 01:52 E 3 10.00 Fair CLR 72 69.1 78.1 72 91% 30.26 1024.0
20 00:52 E 5 10.00 Fair CLR 72 71.1 97% 30.25 1023.8
19 23:52 Calm 9.00 Fair CLR 72 71.1 97% 30.25 1023.7
19 22:52 N 3 10.00 Fair CLR 75 70 84% 75 30.24 1023.5
19 21:52 Calm 10.00 Fair CLR 73.9 70 88% 30.23 1023.1
19 20:52 N 5 10.00 A Few Clouds FEW048 FEW070 77 68 74% 79 30.23 1022.9
19 19:52 SE 7 10.00 Partly Cloudy SCT065 75.9 73 93.9 70 91% 76 30.23 1023.2 0.94
19 18:52 E 7 G 21 10.00 Thunderstorm in Vicinity SCT013 BKN075 BKN100 73 66 79% 30.23 1023.3 0.94
19 17:52 E 8 10.00 Fair CLR 89.1 72 57% 96 30.2 1022.0
19 16:52 Calm 10.00 Thunderstorm in Vicinity FEW060 SCT075 91.9 72 52% 100 30.2 1022.0
19 15:52 SE 3 10.00 Fair CLR 91.9 71.1 51% 99 30.22 1022.7
19 14:52 Vrbl 6 10.00 Fair CLR 91.9 71.1 51% 99 30.22 1022.9
19 13:52 NW 7 10.00 Partly Cloudy FEW075 SCT100 91 72 91.9 78.1 54% 99 30.24 1023.3
19 12:52 SW 5 10.00 Fair CLR 90 71.1 54% 96 30.25 1023.5
19 11:52 Calm 10.00 Partly Cloudy SCT100 89.1 71.1 55% 95 30.25 1023.8
19 10:52 W 5 10.00 Fair CLR 88 69.1 54% 92 30.26 1024.1
19 09:52 W 3 10.00 A Few Clouds FEW049 86 70 59% 91 30.25 1023.9
19 08:52 Calm 10.00 Fair CLR 82 71.1 69% 86 30.25 1023.7
19 07:52 Calm 10.00 Fair CLR 78.1 70 79 72 76% 80 30.23 1023.1
19 06:52 Calm 10.00 Fair CLR 73.9 69.1 85% 30.22 1022.6
19 05:52 Calm 10.00 Fair CLR 73 68 84% 30.2 1021.9
19 04:52 Calm 10.00 Fair CLR 73 68 84% 30.18 1021.5
19 03:52 Calm 10.00 Fair CLR 75 68 79% 76 30.17 1020.9
19 02:52 Calm 10.00 Fair CLR 75 68 79% 76 30.16 1020.6
19 01:52 W 5 10.00 Fair CLR 79 66.9 89.1 78.1 67% 81 30.15 1020.4
19 00:52 S 6 10.00 Fair CLR 79 66.9 67% 81 30.15 1020.4
18 23:52 S 5 10.00 Fair CLR 79 68 69% 81 30.14 1020.1
18 22:52 S 5 10.00 Fair CLR 79 68 69% 81 30.14 1019.9
18 21:52 S 5 10.00 Fair CLR 79 68 69% 81 30.12 1019.5
18 20:52 S 5 10.00 Fair CLR 84.9 68 57% 88 30.1 1018.7
18 19:52 SW 7 10.00 Fair CLR 89.1 68 93 87.1 50% 93 30.1 1018.6
18 18:52 SW 7 10.00 Fair CLR 91 66.9 45% 94 30.09 1018.4
18 17:52 SW 8 10.00 Fair CLR 93 68 44% 97 30.09 1018.2
18 16:52 SW 9 10.00 Fair CLR 93 66.9 42% 97 30.1 1018.5
18 15:52 SW 15 G 21 10.00 A Few Clouds FEW055 91.9 66.9 44% 95 30.11 1018.9
18 14:52 S 15 G 24 10.00 Fair CLR 91.9 70 49% 98 30.12 1019.1
18 13:52 S 8 10.00 Fair CLR 87.1 70 88 79 57% 92 30.14 1019.9
18 12:52 S 7 10.00 Fair CLR 88 71.1 57% 94 30.14 1020.0
18 11:52 SW 10 G 20 10.00 Fair CLR 86 71.1 61% 92 30.13 1019.7
18 10:52 SW 9 G 23 10.00 Fair CLR 87.1 70 57% 92 30.12 1019.4
18 09:52 S 5 10.00 Fair CLR 84 73 70% 90 30.12 1019.2
18 08:52 S 7 10.00 Fair CLR 82 72 72% 87 30.11 1018.9
18 07:52 S 6 10.00 Fair CLR 79 72 80.1 75.9 79% 82 30.09 1018.2
18 06:52 S 7 10.00 Fair CLR 77 71.1 82% 79 30.09 1018.1
18 05:52 S 6 10.00 Fair CLR 75.9 71.1 85% 76 30.07 1017.6
18 04:52 S 5 10.00 Fair CLR 77 71.1 82% 79 30.06 1017.1
18 03:52 S 7 10.00 Fair CLR 79 71.1 77% 82 30.05 1017.0
18 02:52 S 6 10.00 Fair CLR 79 70 74% 82 30.05 1016.9
18 01:52 S 5 10.00 Fair CLR 79 70 90 78.1 74% 82 30.05 1016.8
18 00:52 S 5 10.00 Fair CLR 80.1 70 71% 83 30.05 1016.8
17 23:52 E 3 10.00 Fair CLR 82 69.1 65% 85 30.04 1016.5
17 22:52 SW 7 10.00 Fair CLR 86 69.1 57% 90 30.02 1015.7
17 21:52 S 5 10.00 Fair CLR 82 70 67% 86 30 1015.3
17 20:52 S 5 10.00 A Few Clouds FEW075 82 69.1 65% 85 29.98 1014.5
17 19:52 S 3 10.00 Thunderstorm in Vicinity SCT070 SCT080 90 70 99 89.1 52% 95 29.96 1014.1
17 18:52 SW 5 10.00 Fair CLR 95 68 41% 100 29.95 1013.6
Date Time (edt) Wind (mph) Vis. (mi.) Weather Sky Cond. Air Dwpt Max. Min. Relative Humidity Wind Chill (°F) Heat Index (°F) altimeter (in) sea level (mb) 1 hr 3 hr 6 hr
6 hour
Temperature (ºF) Pressure Precipitation (in)